Starlink 35899

operational
NORAD ID: 66497 Int'l Des: 2025-263 Owner: SPXS Country: US Constellation: starlink
NOTLE

About Starlink 35899

Description loading...

Live Position

Loading 3D Globe...

Upcoming Passes

Altitude History

Altitude vs Time

uPlot chart will show altitude changes over time

Two-Line Element Set

1 66497U 25263N 26047.19087815 .00021445 00000-0 78620-3 0 9990
2 66497 43.0015 111.8691 0001543 267.6177 92.4498 15.27595082 15616
Epoch: Feb 16, 2026 • Age: 20 hours

Current Status

Altitude 482.8 km
Velocity 7.63 km/s
Sub-Earth Point -0.39°S, 137.69°E
Launch Date Nov 15, 2025
Age 0.2 years
Type internet

Technical Details

Classification Payload
Mass 575.00 kg
Dry Mass 530.00 kg
Total Mass 575.00 kg
Length 0.30 m
Diameter 4.10 m
Span 29.00 m
Shape Box + pan
Manufacturer SPXS
Bus Type Starlink V2MO
Phase Status In Orbit
Owner/State SPXS/US

Large Constellations

Loading constellations...